Aérodrome :
LOGIN :

S'inscrire | Disclaimer

   EN    FR    IT 

 










Légende :    VFR   VFR Marginal   IFR   IFR Intensif   IFR Très Intensif
Visi : 
Plafond : 
>= 8 km
>= 3000ft
5 à 8 km
1000 à 3000 ft
1500m à 5 km
500 à 1000 ft
800 à 1500m
200 à 500 ft
< 800m
< 200 ft
Symboles :   Orages  Brouillard  Fortes neiges  Fortes précipitations  Vent > 20 kt
SIGMETs :   Divers  Orages  Givrage  Turbulence  Onde Orograph.  Cendres Volcan.







- Altitude de l'aérodrome : 16 ft
- Code IATA : SDR


LEXJ - Santander Cantabria

DERNIER METAR :
  • 231400Z 05014KT 360V110 CAVOK 21/16 Q1020

METARs EXPIRÉS :
  • 231330Z 05013KT 360V090 CAVOK 21/16 Q1020
  • 231300Z 04012KT 350V080 CAVOK 21/17 Q1020
  • 231230Z 04010KT 340V080 CAVOK 21/17 Q1020
  • 231200Z 04011KT 360V090 CAVOK 21/17 Q1021
  • 231130Z 04012KT 340V090 CAVOK 21/17 Q1021

TAF TAF LEXJ
Valide du 23 à 09h jusqu'au 24 à 09h UTC


230800Z 2309/2409 06009KT CAVOK TX22/2315Z TN14/2405Z
PROB40
TEMPO 2312/2318 05015G25KT
Pas de NOTAMs connus pour ce terrain.



MET'MAP, la Météo Aéronautique d'un coup d'oeil ! - Copyright ORBIFLY Décembre 2007 - Disclaimer

ORBIFLY MET'MAP TEAM :

Programmation & Développement : Alexandra Zaïnal
Conception & Développement : Baudouin d'Aumeries
Co-Programmation & Développement : Marc-Olivier Méhu
Soutien technique & logistique : Manuel Goepfert

Contact : metmap@orbifly.com




SOURCES & CREDITS :

   NOAA